User: anonymous   Login
Location: Unspecified
(0.0000°N, 0.0000°E)
Time: 20:20:30
(UTC+00:00)
Language:

STARLINK-31850 - Orbit

View from above orbital plane
View from above orbital plane
View from above satellite
View from above satellite

Ground track
Ground track

The orbit is defined by the following mean orbital elements,

1 59903U          26145.14993139 +.00000000 +00000-0 +28763-4 0 00006
2 59903  43.0030  53.3045 0001213 270.3609  89.7104 15.27584273    05
Epoch (UTC): 25 May 2026 03:35:54
Eccentricity: 0.0001213
inclination: 43.0030°
perigee height: 482 km
apogee height: 484 km
right ascension of ascending node: 53.3045°
argument of perigee: 270.3609°
revolutions per day: 15.27584273
mean anomaly at epoch: 89.7104°

The dashed part of the orbit path shows where the satellite is in the earth's shadow,  

DLR